GLOBALSTAR FM15 [+]

Last updated on Thu Feb 16 2023 00:03:04 GMT+0000 (Coordinated Universal Time)

1 52888U 22064A 23046.46078915 -.00000128 00000+0 00000+0 0 9990 2 52888 51.9801 109.0054 0009972 203.5217 156.5234 13.37537625 32253
UTC large
Height (km)
Speed (km/s)
/
Latitude / Longitude
Inclination (degrees)
Orbital Period (minutes)
Azimuth
Elevation
Range (km)
Doppler Factor

Next 0 passes for location: London (51.5072 / 0.1276)

Sorry there are no passes over London.